Tracking 29493 objects as of 9-Sep-2024
HD Live streaming from Space Station
objects crossing your sky now

FENGYUN 1C DEB

Track FENGYUN 1C DEB now!
10-day predictions


NORAD ID: 30015
Int'l Code: 1999-025MQ
Perigee: 777.1 km
Apogee: 836.1 km
Inclination: 99.2 °
Period: 100.9 minutes
Semi major axis: 7177 km
RCS: 0.039 m2 (small)
Launch date: May 10, 1999
Source: People's Republic of China (PRC)
Launch site: Taiyaun Space Center, China (TSC)

Note: This is SATELLITE DEBRIS
Your satellite tracking list
Your tracking list is empty




NASA's NSSDC Master Catalog

Two Line Element Set (TLE):
1 30015U 99025MQ  24252.43910681  .00009408  00000-0  37966-2 0  9995
2 30015  99.1929 222.7995 0041091  14.0412 108.5315 14.27679053915960
Source of the keplerian elements: AFSPC